EW0791 Weather Reports


Display with metric or nautical units.
time (UTC)temp
F
wind
direction
speed
MPH
gust
MPH
rain 1hr
in
rain 24hr
in
rain mn
in
humidity
%
barometer
mb
20260507174824 62 6 4.0 15.0 0.00 0.24 0.02 34 1007.4
20260507173318 61 246 2.0 13.0 0.00 0.24 0.02 35 1007.2
20260507171823 62 332 3.0 10.0 0.00 0.24 0.02 38 1007.3
20260507170329 62 332 4.0 10.0 0.00 0.24 0.02 37 1007.4
20260507164846 61 304 4.0 13.0 0.00 0.24 0.02 37 1007.8
20260507163339 61 288 2.0 8.0 0.00 0.24 0.02 40 1008.0
20260507161828 61 325 3.0 11.0 0.00 0.24 0.02 42 1008.1
20260507160321 59 281 2.0 7.0 0.00 0.24 0.02 47 1008.1
20260507154833 59 327 4.0 11.0 0.00 0.24 0.02 51 1008.2
20260507153325 58 264 4.0 12.0 0.00 0.24 0.02 48 1008.3
20260507151818 58 46 4.0 12.0 0.00 0.24 0.02 60 1008.4
20260507150332 57 259 4.0 10.0 0.00 0.24 0.02 58 1008.4
20260507144845 59 276 3.0 7.0 0.00 0.24 0.02 60 1008.4
20260507143323 57 292 2.0 5.0 0.00 0.24 0.02 62 1008.6
20260507141827 56 231 1.0 4.0 0.00 0.24 0.02 64 1008.7
20260507140321 57 232 4.0 6.0 0.00 0.24 0.02 64 1008.5
20260507134834 57 284 2.0 7.0 0.00 0.24 0.02 62 1008.4
20260507133323 57 254 2.0 5.0 0.00 0.24 0.02 65 1008.5
20260507131818 58 326 1.0 4.0 0.00 0.24 0.02 65 1008.7
20260507130326 57 281 1.0 6.0 0.00 0.24 0.02 67 1008.9
20260507124820 56 32 1.0 2.0 0.00 0.24 0.02 71 1008.9
20260507123324 54 284 1.0 4.0 0.00 0.24 0.02 75 1009.0
20260507121820 52 335 1.0 3.0 0.00 0.24 0.02 78 1009.2
20260507120325 50 63 1.0 4.0 0.00 0.24 0.02 81 1009.2
20260507114816 50 288 1.0 3.0 0.00 0.24 0.02 83 1009.1
20260507113328 50 266 0.0 4.0 0.00 0.24 0.02 84 1009.1
20260507111822 49 267 1.0 4.0 0.00 0.24 0.02 84 1008.9
20260507110334 49 227 1.0 2.0 0.00 0.24 0.02 84 1008.8
20260507104821 49 27 0.0 3.0 0.00 0.24 0.02 85 1008.7
20260507103325 49 106 1.0 2.0 0.00 0.24 0.02 85 1008.3
20260507101829 49 264 0.0 3.0 0.00 0.24 0.02 85 1008.2
20260507100323 49 6 1.0 4.0 0.00 0.24 0.02 85 1008.3
20260507094833 49 7 1.0 2.0 0.00 0.24 0.02 84 1008.2
20260507093347 49 240 0.0 2.0 0.00 0.24 0.02 85 1008.4
20260507091821 49 299 1.0 3.0 0.00 0.24 0.02 86 1008.4
20260507090343 49 279 2.0 6.0 0.00 0.24 0.02 86 1008.6
20260507084835 49 254 0.0 3.0 0.01 0.24 0.02 88 1008.4
20260507083349 49 257 1.0 4.0 0.01 0.24 0.02 88 1008.4
20260507081839 49 220 0.0 4.0 0.01 0.24 0.02 87 1008.2
20260507080356 50 241 0.0 3.0 0.01 0.24 0.02 85 1008.1
20260507074820 51 237 0.0 4.0 0.00 0.23 0.01 84 1008.2
20260507073334 51 274 1.0 4.0 0.00 0.23 0.01 84 1008.5
20260507071824 51 244 2.0 7.0 0.00 0.23 0.01 84 1007.7
20260507070324 52 295 2.0 6.0 0.00 0.23 0.01 87 1007.5
20260507064823 52 269 0.0 2.0 0.00 0.23 0.01 89 1007.7
20260507063338 52 255 1.0 3.0 0.00 0.23 0.01 88 1007.5
20260507061826 52 260 0.0 2.0 0.00 0.23 0.01 87 1007.2
20260507060330 52 282 0.0 2.0 0.00 0.23 0.01 87 1007.3
20260507054827 52 228 0.0 2.0 0.00 0.23 0.01 87 1007.5
20260507053323 52 299 1.0 5.0 0.00 0.23 0.01 86 1008.0
20260507051837 53 285 2.0 5.0 0.00 0.23 0.01 87 1007.9
20260507050352 53 270 1.0 3.0 0.01 0.23 0.01 88 1008.1
20260507044822 53 272 0.0 4.0 0.01 0.23 0.01 89 1007.7
20260507043338 54 279 3.0 7.0 0.03 0.23 0.01 90 1007.7
20260507041828 55 240 1.0 4.0 0.02 0.22 0.01 92 1007.7
20260507040326 56 274 1.0 3.0 0.02 0.22 0.00 92 1007.8
20260507034822 57 276 2.0 4.0 0.02 0.22 0.22 89 1007.6
20260507033323 58 82 1.0 5.0 0.00 0.20 0.20 91 1007.1
20260507031847 58 347 2.0 9.0 0.00 0.20 0.20 93 1007.0
20260507030322 59 328 1.0 4.0 0.00 0.20 0.20 96 1006.5
20260507024839 60 293 1.0 3.0 0.00 0.20 0.20 96 1006.8
20260507023328 60 239 1.0 6.0 0.00 0.20 0.20 96 1006.6
20260507021823 60 236 2.0 3.0 0.00 0.20 0.20 95 1006.6
20260507020327 60 156 0.0 4.0 0.00 0.20 0.20 95 1006.1
20260507014823 60 207 1.0 5.0 0.00 0.20 0.20 95 1006.3
20260507013355 60 254 2.0 5.0 0.00 0.20 0.20 95 1006.5
20260507011848 60 209 3.0 5.0 0.00 0.20 0.20 95 1006.5
20260507010340 60 155 2.0 6.0 0.00 0.20 0.20 95 1006.4
20260507004827 60 160 2.0 7.0 0.00 0.20 0.20 95 1006.4
20260507003325 60 214 3.0 7.0 0.00 0.20 0.20 95 1006.2
20260507001830 60 181 2.0 6.0 0.00 0.20 0.20 95 1006.1
20260507000325 60 174 4.0 9.0 0.01 0.20 0.20 95 1006.2
20260506234832 60 205 3.0 8.0 0.03 0.20 0.20 95 1006.2
20260506233325 60 157 2.0 6.0 0.05 0.20 0.20 95 1005.9
20260506231829 60 216 3.0 7.0 0.07 0.20 0.20 95 1006.0
20260506230357 60 219 2.0 7.0 0.07 0.19 0.19 95 1006.2
20260506224823 60 189 3.0 7.0 0.06 0.17 0.17 94 1006.3
20260506223329 60 146 2.0 8.0 0.06 0.15 0.15 94 1006.3
20260506221823 60 196 3.0 11.0 0.04 0.13 0.13 93 1006.3
20260506220328 60 191 3.0 10.0 0.03 0.12 0.12 93 1006.4
20260506214823 61 149 4.0 9.0 0.02 0.11 0.11 92 1006.5
20260506213317 61 69 4.0 9.0 0.01 0.09 0.09 92 1006.4
20260506211854 61 114 5.0 10.0 0.02 0.09 0.09 92 1006.6
20260506210331 61 188 3.0 12.0 0.04 0.09 0.09 92 1006.8
20260506204823 61 179 5.0 13.0 0.04 0.09 0.09 91 1007.0
20260506203329 62 182 5.0 12.0 0.02 0.07 0.07 91 1007.1
20260506201823 62 146 4.0 8.0 0.02 0.07 0.07 90 1007.1
20260506200346 63 216 3.0 9.0 0.01 0.05 0.05 88 1007.0
20260506194829 63 232 3.0 9.0 0.02 0.05 0.05 88 1007.0
20260506193326 64 207 2.0 10.0 0.04 0.05 0.05 88 1007.0
20260506191822 64 204 2.0 9.0 0.05 0.05 0.05 87 1007.1
20260506190329 64 233 1.0 4.0 0.04 0.04 0.04 88 1007.0
20260506184824 65 188 2.0 9.0 0.03 0.03 0.03 85 1007.3
20260506183329 66 245 1.0 6.0 0.01 0.01 0.01 81 1007.3
20260506181822 69 13 3.0 14.0 0.00 0.00 0.00 71 1007.5
20260506180329 71 136 5.0 22.0 0.00 0.00 0.00 66 1007.5